星链-31045 (STARLINK-31045 )

导读

STARLINK-31045是美国SpaceX公司星链(Starlink)星座中的一颗低轨通信卫星,于2023年12月8日发射入轨。作为全球最大卫星互联网星座的组成部分,它采用平板设计搭配太阳电池阵,以氪为工质的霍尔推进器实现轨道机动与离轨,搭载Ku/Ka波段通信载荷与光学星间链路,为全球用户提供高速宽带互联网服务,设计使用寿命约5-7年,退役后会主动脱轨再入大气层烧毁。

基本信息
目录编号:
58541
目录名称:
STARLINK-31045
国际标识:
2023-192L
轨道中心:
EARTH
卫星名称:
星链-31045
卫星全名:
星链-31045 (STARLINK-31045 )
卫星状态:
在轨 (已飞行1008 天)
发射日期:
2023-12-08 UTC
国别 :
美国 (US)
星等 :
--
该卫星已列入 空间交会检测服务 Space Conjunction Data Service (SCDS) ,当前飞行风险评估等级: 无高风险
轨道信息
数据来源 国际轨道数据 AOE轨道数据
星历时间 2026-09-11T14:23:00+0800
10小时前
查看轨道信息
2026-09-10T07:00:00+0800
1天前
查看轨道信息
半长轴 6840.909km 6840.834km
偏心率 0.0001694 0.0001268
轨道倾角 53.161° 53.159°
近地点辐角 65.453° 68.570°
升交点赤经 357.082° 3.195°
平近点角 294.665° 264.441°
近地点 461.613km 461.829km
远地点 463.931km 463.565km
周期 93.849分钟 93.848分钟
每日圈数 15.343771 15.344021
详细信息
固有亮度:
5
最大亮度:
0.3
卫星平台:
Starlink v2.0 mini
覆盖范围:
全球
运营商:
太空探索技术公司
运营商所在国:
美国
制造商(研发单位):
太空探索技术公司
制造商所在国:
美国
使用方式:
暂无
卫星简介
星链(Starlink)计划是由太空探索技术公司(SpaceX)提出的一个巨型低轨卫星互联网星座项目,计划在2019年至2024年间在太空搭建由约1.2万颗卫星组成的“星链”网络,其中1584颗将部署在地球上空550千米处的近地轨道,并从2020年开始工作。该卫星仍在工作。
2D轨道图
3D轨道图
轨道高度分析图
轨道倾角分析图
轨道综合分析图
查看轨道综合分析图
交会数据列表
事件ID 空间交会对象 最接近时刻(TCA) 交会距离 交会风险概率(CRP) 交会风险指数(CRI) 操作
CDM_260913-071505-854106-994621
2026-09-13T
07:15:38+0000
0.584 km
远距离
4.246253E-5 中风险 0.68
CDM_260914-014005-854106-832521
2026-09-14T
01:40:53+0000
0.876 km
远距离
3.674003E-5 中风险 0.66
CDM_260913-001305-854106-994621
2026-09-13T
00:13:34+0000
0.636 km
远距离
3.255136E-5 中风险 0.65
CDM_260913-115705-854106-593021
2026-09-13T
11:57:18+0000
0.918 km
远距离
1.079383E-5 中风险 0.56
CDM_260903-220105-854106-100421
2026-09-03T
22:01:06+0000
1.140 km
极远距离
1.073288E-5 中风险 0.56
CDM_260903-233405-854106-100422
2026-09-03T
23:34:53+0000
1.162 km
极远距离
1.004671E-5 中风险 0.55
CDM_260914-031405-854106-832521
2026-09-14T
03:14:40+0000
1.550 km
极远距离
5.23414E-6 低风险 0.49
CDM_260913-054105-854106-994621
2026-09-13T
05:41:50+0000
1.309 km
极远距离
2.95354E-6 低风险 0.44
CDM_260913-014705-854106-994621
2026-09-13T
01:47:22+0000
1.337 km
极远距离
2.753117E-6 低风险 0.44
CDM_260913-080205-854106-593021
2026-09-13T
08:02:50+0000
1.472 km
极远距离
2.24495E-6 低风险 0.42
与全量物体交会距离演化趋势
与全量物体交会风险概率演化趋势